When you browse on this site, cookies collect data to enhance your experience and personalize the content and advertising you see.
Visit our Privacy Policy to learn more. By continuing to use the site, you agree to this use of cookies and data.
  • In Germany
  • List of Countries
  • For 7 days
  • Water Temperature
  • Weather Map
  • Weather Widgets
  • user-avatar
    Login

    Hourly Weather Armawir

    Today, 23 January, Thursday

    Time Temperature Precipitation Wind Pressure Humidity
    00:00 -2°C° 0 mm 1 mps 688 mmHg 54%
    01:00 -3°C° 0 mm 1 mps 687 mmHg 54%
    02:00 -3°C° 0 mm 1 mps 687 mmHg 55%
    03:00 -3°C° 0 mm 1 mps 686 mmHg 58%
    04:00 -3°C° 0 mm 1 mps 686 mmHg 59%
    05:00 -4°C° 0 mm 1 mps 686 mmHg 60%
    06:00 -4°C° 0 mm 1 mps 685 mmHg 61%
    07:00 -3°C° 0 mm 1 mps 685 mmHg 58%
    08:00 -2°C° 0 mm 1 mps 685 mmHg 55%
    09:00 -2°C° 0 mm 1 mps 685 mmHg 52%
    10:00 -1°C° 0 mm 1 mps 684 mmHg 49%
    11:00 0°C° 0 mm 1 mps 684 mmHg 47%
    12:00 +1°C° 0 mm 1 mps 683 mmHg 44%
    13:00 +2°C° 0 mm 1 mps 683 mmHg 44%
    14:00 +2°C° 0 mm 1 mps 682 mmHg 44%
    15:00 +2°C° 0 mm 1 mps 682 mmHg 44%
    16:00 +2°C° 0.1 mm 1 mps 682 mmHg 51%
    17:00 +1°C° 0.1 mm 1 mps 682 mmHg 59%
    18:00 -2°C° 0.1 mm 2 mps 683 mmHg 67%
    19:00 -2°C° 0 mm 2 mps 683 mmHg 69%
    20:00 0°C° 0 mm 1 mps 683 mmHg 72%
    21:00 0°C° 0 mm 1 mps 683 mmHg 74%
    22:00 0°C° 0.2 mm 1 mps 683 mmHg 80%
    23:00 -1°C° 0.2 mm 1 mps 683 mmHg 86%

    Tomorrow, 24 January, Friday

    Time Temperature Precipitation Wind Pressure Humidity
    00:00 -1°C° 0.2 mm 1 mps 683 mmHg 91%
    01:00 -1°C° 0.2 mm 1 mps 683 mmHg 91%
    02:00 -1°C° 0.2 mm 1 mps 684 mmHg 91%
    03:00 -1°C° 0.2 mm 1 mps 684 mmHg 91%
    04:00 -1°C° 0 mm 1 mps 684 mmHg 89%
    05:00 -2°C° 0 mm 1 mps 685 mmHg 87%
    06:00 -2°C° 0 mm 1 mps 685 mmHg 85%
    07:00 -1°C° 0 mm 1 mps 686 mmHg 79%
    08:00 -1°C° 0 mm 1 mps 686 mmHg 72%
    09:00 0°C° 0 mm 1 mps 687 mmHg 65%
    10:00 -2°C° 0 mm 2 mps 687 mmHg 57%
    11:00 -1°C° 0 mm 3 mps 687 mmHg 48%
    12:00 -1°C° 0 mm 4 mps 687 mmHg 40%
    13:00 -1°C° 0 mm 4 mps 687 mmHg 38%
    14:00 -1°C° 0 mm 5 mps 688 mmHg 37%
    15:00 -1°C° 0 mm 5 mps 688 mmHg 36%
    16:00 -2°C° 0 mm 4 mps 688 mmHg 38%
    17:00 -4°C° 0 mm 4 mps 689 mmHg 41%
    18:00 -5°C° 0 mm 3 mps 689 mmHg 44%
    19:00 -6°C° 0 mm 3 mps 690 mmHg 44%
    20:00 -6°C° 0 mm 3 mps 691 mmHg 45%
    21:00 -7°C° 0 mm 3 mps 692 mmHg 46%
    22:00 -7°C° 0 mm 3 mps 692 mmHg 46%
    23:00 -7°C° 0 mm 3 mps 693 mmHg 47%

    Day after tomorrow, 25 January, Saturday

    Time Temperature Precipitation Wind Pressure Humidity
    00:00 -8°C° 0 mm 3 mps 693 mmHg 47%
    01:00 -8°C° 0 mm 3 mps 694 mmHg 47%
    02:00 -8°C° 0 mm 2 mps 694 mmHg 47%
    03:00 -8°C° 0 mm 2 mps 694 mmHg 48%
    04:00 -8°C° 0 mm 2 mps 694 mmHg 48%
    05:00 -9°C° 0 mm 2 mps 694 mmHg 49%
    06:00 -9°C° 0 mm 2 mps 694 mmHg 49%
    07:00 -8°C° 0 mm 2 mps 694 mmHg 47%
    08:00 -8°C° 0 mm 2 mps 695 mmHg 45%
    09:00 -7°C° 0 mm 2 mps 695 mmHg 42%
    10:00 -6°C° 0 mm 2 mps 695 mmHg 40%
    11:00 -5°C° 0 mm 2 mps 694 mmHg 38%
    12:00 -1°C° 0 mm 1 mps 694 mmHg 36%
    13:00 -1°C° 0 mm 1 mps 693 mmHg 36%
    14:00 -1°C° 0 mm 1 mps 693 mmHg 35%
    15:00 -1°C° 0 mm 0 mps 693 mmHg 34%
    16:00 -2°C° 0 mm 0 mps 693 mmHg 38%
    17:00 -2°C° 0 mm 1 mps 693 mmHg 43%
    18:00 -4°C° 0 mm 1 mps 692 mmHg 47%
    19:00 -4°C° 0 mm 1 mps 692 mmHg 47%
    20:00 -4°C° 0 mm 1 mps 692 mmHg 47%
    21:00 -4°C° 0 mm 1 mps 692 mmHg 48%
    22:00 -6°C° 0 mm 1 mps 692 mmHg 48%
    23:00 -6°C° 0 mm 1 mps 692 mmHg 48%

    26 January, Sunday

    Time Temperature Precipitation Wind Pressure Humidity
    00:00 -6°C° 0 mm 1 mps 692 mmHg 49%
    01:00 -6°C° 0 mm 0 mps 692 mmHg 49%
    02:00 -7°C° 0 mm 0 mps 691 mmHg 50%
    03:00 -7°C° 0 mm 0 mps 691 mmHg 51%
    04:00 -7°C° 0 mm 0 mps 691 mmHg 52%
    05:00 -7°C° 0 mm 0 mps 691 mmHg 52%
    06:00 -8°C° 0 mm 0 mps 691 mmHg 53%
    07:00 -7°C° 0 mm 0 mps 691 mmHg 50%
    08:00 -5°C° 0 mm 0 mps 691 mmHg 46%
    09:00 -4°C° 0 mm 0 mps 692 mmHg 43%
    10:00 -3°C° 0 mm 0 mps 691 mmHg 40%
    11:00 -2°C° 0 mm 0 mps 691 mmHg 38%
    12:00 -1°C° 0 mm 0 mps 690 mmHg 36%
    13:00 -1°C° 0 mm 0 mps 690 mmHg 35%
    14:00 0°C° 0 mm 0 mps 690 mmHg 35%
    15:00 0°C° 0 mm 0 mps 690 mmHg 35%
    16:00 -1°C° 0 mm 0 mps 690 mmHg 39%
    17:00 -2°C° 0 mm 0 mps 690 mmHg 42%
    18:00 -3°C° 0 mm 0 mps 690 mmHg 46%
    19:00 -3°C° 0 mm 0 mps 690 mmHg 47%
    20:00 -2°C° 0 mm 1 mps 690 mmHg 47%
    21:00 -3°C° 0 mm 1 mps 690 mmHg 48%
    22:00 -4°C° 0 mm 0 mps 690 mmHg 49%
    23:00 -4°C° 0 mm 0 mps 690 mmHg 50%

    27 January, Monday

    Time Temperature Precipitation Wind Pressure Humidity
    00:00 -4°C° 0 mm 0 mps 691 mmHg 50%
    01:00 -4°C° 0 mm 0 mps 691 mmHg 52%
    02:00 -5°C° 0 mm 0 mps 691 mmHg 53%
    03:00 -5°C° 0 mm 0 mps 691 mmHg 54%
    04:00 -5°C° 0 mm 0 mps 691 mmHg 55%
    05:00 -6°C° 0 mm 0 mps 691 mmHg 56%
    06:00 -6°C° 0 mm 0 mps 691 mmHg 57%
    07:00 -5°C° 0 mm 0 mps 692 mmHg 54%
    08:00 -3°C° 0 mm 0 mps 692 mmHg 50%
    09:00 -2°C° 0 mm 0 mps 693 mmHg 46%
    10:00 -1°C° 0 mm 0 mps 693 mmHg 43%
    11:00 0°C° 0 mm 0 mps 693 mmHg 41%
    12:00 +2°C° 0 mm 0 mps 693 mmHg 39%
    13:00 +2°C° 0 mm 0 mps 693 mmHg 39%
    14:00 +3°C° 0 mm 0 mps 693 mmHg 38%
    15:00 +3°C° 0 mm 0 mps 693 mmHg 38%
    16:00 +3°C° 0 mm 1 mps 693 mmHg 42%
    17:00 +1°C° 0 mm 1 mps 693 mmHg 47%
    18:00 0°C° 0 mm 1 mps 694 mmHg 51%
    19:00 -1°C° 0 mm 1 mps 694 mmHg 53%
    20:00 -1°C° 0 mm 1 mps 694 mmHg 55%
    21:00 -2°C° 0 mm 1 mps 694 mmHg 57%
    22:00 -2°C° 0 mm 1 mps 694 mmHg 57%
    23:00 -2°C° 0 mm 1 mps 694 mmHg 58%

    28 January, Tuesday

    Time Temperature Precipitation Wind Pressure Humidity
    00:00 -3°C° 0 mm 1 mps 694 mmHg 59%
    01:00 -3°C° 0 mm 1 mps 694 mmHg 60%
    02:00 -3°C° 0 mm 1 mps 694 mmHg 61%
    03:00 -4°C° 0 mm 0 mps 694 mmHg 62%
    04:00 -5°C° 0 mm 0 mps 694 mmHg 63%
    05:00 -5°C° 0 mm 0 mps 694 mmHg 64%
    06:00 -5°C° 0 mm 0 mps 693 mmHg 65%
    07:00 -4°C° 0 mm 0 mps 694 mmHg 60%
    08:00 -3°C° 0 mm 0 mps 694 mmHg 56%
    09:00 -2°C° 0 mm 0 mps 694 mmHg 51%
    10:00 -1°C° 0 mm 0 mps 694 mmHg 49%
    11:00 0°C° 0 mm 0 mps 694 mmHg 46%
    12:00 +1°C° 0 mm 0 mps 693 mmHg 43%
    13:00 +2°C° 0 mm 0 mps 693 mmHg 42%
    14:00 +2°C° 0 mm 0 mps 692 mmHg 42%
    15:00 +3°C° 0 mm 0 mps 692 mmHg 41%
    16:00 +1°C° 0 mm 0 mps 692 mmHg 45%
    17:00 0°C° 0 mm 0 mps 692 mmHg 48%
    18:00 -1°C° 0 mm 0 mps 692 mmHg 52%
    19:00 0°C° 0 mm 1 mps 692 mmHg 53%
    20:00 0°C° 0 mm 1 mps 692 mmHg 53%
    21:00 -1°C° 0 mm 1 mps 692 mmHg 54%
    22:00 -1°C° 0 mm 1 mps 692 mmHg 54%
    23:00 -1°C° 0 mm 1 mps 692 mmHg 55%
    Show more